Weather Roundup
Issued by NWS

Home | Current Version | Previous Version | Graphics & Text | Print | Product List | Glossary Off
Versions: 1 2 3 4 5 6 7 8 9 10 11 12 13 14 15 16 17 18 19 20 21 22 23 24 25 26 27 28 29 30 31 32 33 34 35 36 37 38 39 40 41 42 43 44 45 46 47 48 49 50

000
NZUS93 KARX 040259
HRRWXR

CURRENT HOURLY OBSERVATIONS ACROSS
MUCH OF THE UPPER MISSISSIPPI VALLEY
NATIONAL WEATHER SERVICE LA CROSSE WI
1000 PM CDT SUN MAY 03 2015


...SOUTHEAST MINNESOTA...


CITY           SKY/WX    TMP DP  RH WIND       PRES   REMARKS
ROCHESTER      LGT RAIN  59  55  87 NE21G26   29.86F
ROCHESTER/MAYO FAIR      60  56  87 NE10G23   29.86F
WINONA         RAIN      61  59  94 CALM      29.92R
AUSTIN         LGT RAIN  61  54  77 NE14G21   29.85F
ALBERT LEA     CLOUDY    63  52  67 NE9       29.87R
DODGE CENTER   CLOUDY    61  54  77 E15       29.87R
PRESTON        TSTM      59  57  94 NE9       29.88R
OWATONNA       CLOUDY    59  50  72 N8        29.89R
FARIBAULT      CLOUDY    59  52  77 NE3       29.90R
$$

...ELSEWHERE IN MINNESOTA...


CITY           SKY/WX    TMP DP  RH WIND       PRES   REMARKS
MINNEAPOLIS    CLOUDY    63  44  50 NE10      29.88R
INTNL FALLS    CLEAR     51  34  52 NW10      29.94R
DULUTH         PTCLDY    57  33  40 NW7       29.90R
RED WING       CLOUDY    61  54  77 SE3       29.87R
REDWOOD FALLS  CLEAR     63  34  33 N9        29.95R
MANKATO          N/A    N/A N/A N/A MISG        N/A
WORTHINGTON    PTCLDY    61  37  41 NE12      29.95R
FAIRMONT       MOCLDY    64  43  45 N13       29.91R
$$

...SOUTHWEST WISCONSIN...


CITY           SKY/WX    TMP DP  RH WIND       PRES   REMARKS
LA CROSSE      TSTM      62  58  86 N10       29.87S FOG
PRAIRIE DU CHI CLOUDY    69  58  66 SE3       29.84R
BOSCOBEL       CLOUDY    69  59  70 CALM      29.86R
LONE ROCK      NOT AVBL
PLATTEVILLE    MOCLDY    64  60  86 SE7       29.88R
FORT MC COY    TSTM      62  56  81 NW7       29.94R
CAMP DOUGLAS   CLOUDY    63  61  94 NW16G32   29.94R
VIROQUA        MOCLDY    67  51  57 N16G29    29.88R
WIS DELLS      NOT AVBL
$$

...ELSEWHERE IN WISCONSIN...


CITY           SKY/WX    TMP DP  RH WIND       PRES   REMARKS
MILWAUKEE      PTCLDY    65  53  65 S15       29.89R
MADISON        CLOUDY    64  55  72 S8        29.88R
GREEN BAY      CLOUDY    67  54  63 S9        29.87R
EAU CLAIRE     NOT AVBL
BLACK RVR FLS  TSTM      59  59 100 SE6       29.90R
MEDFORD        HVY RAIN  57  54  89 NE10      29.91R
WAUSAU         TSTM      63  54  72 VRB6      29.92R
WIS RAPIDS     HVY RAIN  60  56  86 N15G26    29.92R
MARSHFIELD     HVY RAIN  59 N/A N/A N16       29.92S
RICE LAKE      MOCLDY    58  49  71 CALM      29.90R
$$

...NORTHEAST IOWA...


CITY           SKY/WX    TMP DP  RH WIND       PRES   REMARKS
DECORAH        CLOUDY    70  59  68 E10       29.81S
MASON CITY     CLOUDY    62  59  90 N12       29.88R
CHARLES CITY   RAIN      59  59 100 CALM      29.92R
OELWEIN        CLOUDY    73  57  56 SW8       29.85R
$$

...ELSEWHERE IN IOWA...


CITY           SKY/WX    TMP DP  RH WIND       PRES   REMARKS
DES MOINES     CLOUDY    74  57  55 SE6       29.81R
IOWA CITY      MOCLDY    71  57  61 S9        29.87R
FORT DODGE     CLOUDY    63  55  77 E12       29.83F
$$

...NORTHERN ILLINOIS...


CITY           SKY/WX    TMP DP  RH WIND       PRES   REMARKS
CHICAGO-OHARE  MOCLDY    64  54  69 S13       29.92F
CHICAGO-MIDWAY MOCLDY    71  52  50 SE10      29.93F
MOLINE         MOCLDY    74  54  49 S8        29.88R
ROCKFORD       PTCLDY    62  55  77 SE12      29.92R
PEORIA         FAIR      73  49  42 S13       29.92R
$$

NOTE: "FAIR" INDICATES FEW OR NO CLOUDS BELOW 12,000 FEET WITH NO
SIGNIFICANT WEATHER AND/OR OBSTRUCTIONS TO VISIBILITY. WIND
SPEEDS ARE IN MILES-PER-HOUR.



USA.gov is the U.S. government's official web portal to all federal, state and local government web resources and services.